Printer-friendly version

IAU Minor Planet Center

Minor Planet Center

MPEC 2006-U05 : 2006 UF

The following Minor Planet Electronic Circular may be linked-to from your own Web pages, but must not otherwise be redistributed electronically.


Read MPEC 2006-U04 Read MPEC 2006-U06


M.P.E.C. 2006-U05                                Issued 2006 Oct. 17, 13:21 UT

     The Minor Planet Electronic Circulars contain information on unusual
         minor planets and routine data on comets.  They are published
   on behalf of Commission 20 of the International Astronomical Union by the
          Minor Planet Center, Smithsonian Astrophysical Observatory,
                          Cambridge, MA 02138, U.S.A.

             Prepared using the Tamkin Foundation Computer Network

                              MPC@CFA.HARVARD.EDU
          URL http://cfa-www.harvard.edu/iau/mpc.html  ISSN 1523-6714

                                    2006 UF

Observations:
     K06U00F* C2006 10 16.23566 02 06 16.87 +15 01 17.5          19.7 V EU005691
     K06U00F  C2006 10 16.25312 02 06 20.10 +15 00 54.6          19.8 V EU005691
     K06U00F  C2006 10 16.27042 02 06 23.27 +15 00 32.1          19.7 V EU005691
     K06U00F  C2006 10 16.33409 02 06 34.88 +14 59 08.3          20.2 V EU005291
     K06U00F  C2006 10 16.33847 02 06 35.67 +14 59 02.5          20.2 V EU005291
     K06U00F  C2006 10 16.34311 02 06 36.52 +14 58 56.4          20.2 V EU005291
     K06U00F  C2006 10 16.93153 02 08 34.54 +14 45 30.2          20.1 V EU005A44
     K06U00F  C2006 10 16.93915 02 08 35.95 +14 45 19.8          20.2 V EU005A44
     K06U00F  C2006 10 16.94685 02 08 37.40 +14 45 08.9          20.1 V EU005A44
     K06U00F  C2006 10 16.99033 02 08 45.49 +14 44 09.1                 EU005118
     K06U00F  C2006 10 16.99518 02 08 46.40 +14 44 02.8                 EU005118
     K06U00F  C2006 10 16.99945 02 08 47.20 +14 43 56.7                 EU005118
     K06U00F  C2006 10 17.27134 02 09 43.03 +14 37 51.1          20.1 R EU005854
     K06U00F  C2006 10 17.27709 02 09 44.14 +14 37 44.2          19.9 R EU005854
     K06U00F  C2006 10 17.28285 02 09 45.22 +14 37 35.8          19.9 R EU005854

Observer details:
118 Modra.  Observer S. Gajdos.  0.6-m f/5.5 reflector + CCD.
291 LPL/Spacewatch II.  Observer T. H. Bressi.  1.8-m f/2.7 reflector + CCD.
691 Steward Observatory, Kitt Peak.  Observer T. H. Bressi.  0.9-m f/3
    reflector + CCD.
854 Sabino Canyon Observatory, Tucson.  Observer J. E. McGaha.  0.36-m f/10.0
    Schmidt-Cassegrain + CCD.
A44 Altschwendt.  Observer W. Ries.  0.45-m f/3.6 reflector + CCD.

Orbital elements:
2006 UF                                                  Earth MOID = 0.1687 AU
Epoch 2006 Sept. 22.0 TT = JDT 2454000.5                MPC
M 346.43406              (2000.0)            P               Q
n   0.25961853     Peri.  203.88000     +0.62397186     -0.77945259
a   2.4335798      Node   207.61320     +0.73495148     +0.60960830
e   0.5262378      Incl.    6.91355     +0.26552862     +0.14433082
P   3.80           H   22.6           G   0.15           U   8
Residuals in seconds of arc
061016 691  0.1-  0.1+    061016 291  0.0   0.2+    061016 118  0.2+  0.1-
061016 691  0.1+  0.2-    061016 A44  0.0   0.2+    061016 118  0.2+  0.3-
061016 691  0.1+  0.2-    061016 A44  0.4-  0.2+    061017 854  0.4-  0.4-
061016 291  0.0   0.0     061016 A44  0.4-  0.3-    061017 854  0.2+  0.6+
061016 291  0.1-  0.1+    061016 118  0.3+  0.5-    061017 854  0.3+  0.2+

Ephemeris:
2006 UF                  a,e,i = 2.43, 0.53, 7                   q = 1.1529
Date    TT    R. A. (2000) Decl.     Delta      r     Elong.  Phase     V
2006 10 12    01 52.87   +16 25.2    0.219    1.211   165.7    11.7    20.4
2006 10 22    02 26.22   +12 36.8    0.189    1.181   169.9     8.5    19.9
2006 11 01    03 04.36   +07 20.1    0.172    1.162   167.9    10.3    19.8
2006 11 11    03 43.03   +01 45.5    0.170    1.153   161.7    15.6    19.9
2006 11 21    04 17.04   -02 38.9    0.182    1.156   156.2    20.2    20.2
2006 12 01    04 43.88   -05 03.3    0.204    1.171   152.9    22.5    20.6
2006 12 11    05 03.96   -05 31.5    0.235    1.197   151.5    23.1    20.9
2006 12 21    05 19.04   -04 30.9    0.276    1.232   150.7    23.0    21.3
2006 12 31    05 31.42   -02 32.2    0.327    1.275   149.4    23.1    21.8

Timothy B. Spahr             (C) Copyright 2006 MPC           M.P.E.C. 2006-U05

Read MPEC 2006-U04 Read MPEC 2006-U06


Our Web policy. Index to the CBAT/MPC/ICQ pages.


Valid HTML 4.01!